Location: Observatoire
(46.1952°N, 5.3391°E)
Time: 16:34:23
(UTC+01:00)

Injun/Solrad 3 - Pass Details

Date: 19 February 2026
Orbit: 872 x 984 km, 66.8° (Epoch: 7 March)

Event Time Altitude Azimuth Distance (km) Brightness Sun altitude
Rises 19:26:08 0° 328° (NNW) 3,563 11.4 -13.8°
Reaches altitude 10° 19:28:44 10° 334° (NNW) 2,634 10.6 -14.2°
Maximum altitude 19:34:41 49° 49° (NE) 1,198 8.2 -15.3°
Enters shadow 19:38:54 20° 117° (ESE) 2,067 9.2 -16.0°
